Probability
74 77 81 74 68 55 52 45 48 39 39 32 23 23 23 23 16 16 10 13 10 10 10 10 13 10 6 3 0 0 0 0 0 0 0 0 0 0 0 0 0 0 0
74 77 81 84 74 65 52 55 48 48 45 42 32 29 23 19 19 16 13 10 10 10 10 10 10 10 26 3 3 3 3 0 0 0 0 0 3 6 0 0 0 0 0
77 74 81 87 74 71 68 65 55 52 52 42 39 32 26 23 23 19 13 10 13 19 23 19 19 19 23 10 13 3 3 3 0 0 0 0 0 0 0 0 0 0 0
77 81 87 90 84 71 71 68 61 58 48 42 42 39 35 26 23 19 23 23 26 26 26 26 26 26 26 23 10 10 3 3 3 3 0 0 0 0 0 0 0 0 0
77 77 84 90 84 77 74 68 58 55 39 42 39 42 42 23 10 23 19 13 23 23 23 23 19 6 3 3 3 3 6 3 3 3 0 0 0 0 0 0 0 0 0
77 77 84 84 74 74 71 71 61 55 45 42 42 39 39 6 0 0 6 13 23 23 19 16 19 6 3 0 0 0 0 3 3 0 0 0 0 0 0 0 0 0 0
84 81 84 81 74 68 55 61 58 55 52 52 45 35 32 26 0 0 0 6 10 10 13 16 6 0 0 0 0 0 0 0 0 0 0 0 0 0 0 0 0 0 0
84 81 81 77 71 68 68 68 71 61 58 58 52 39 42 29 0 0 0 0 0 3 3 10 16 10 0 0 3 0 0 0 0 0 0 0 0 0 0 0 0 0 0
65 74 71 65 61 58 61 71 77 68 61 52 55 55 45 29 3 0 0 0 0 0 0 0 3 3 3 0 0 0 0 0 0 0 0 0 0 0 0 0 0 0 0
61 61 61 65 61 65 68 74 68 65 65 45 45 45 39 39 13 0 0 0 0 0 0 3 0 0 0 0 0 0 0 0 0 0 0 0 0 0 0 0 0 0 0
45 55 42 45 42 52 52 52 52 52 42 45 48 42 42 26 3 0 0 0 0 0 0 0 0 0 0 0 0 0 0 0 0 0 0 0 0 0 0 0 0 0 0
35 32 35 42 32 26 39 42 45 42 42 39 45 32 29 29 3 0 0 0 0 0 0 0 0 0 0 0 0 0 0 0 0 0 0 0 0 0 0 0 0 0 0
29 26 29 29 26 26 29 26 26 29 19 6 6 6 13 6 6 0 0 0 0 0 0 0 0 0 0 0 0 0 0 0 0 0 0 0 0 0 0 0 0 0 0
23 23 23 19 19 16 19 6 6 6 6 3 3 3 3 0 0 0 0 0 0 0 0 0 0 0 0 0 0 0 0 0 0 0 0 0 0 0 0 0 0 0 0
19 16 19 26 23 19 10 3 3 10 6 0 6 3 0 0 0 0 0 0 3 0 0 0 0 0 0 0 0 0 0 0 0 0 0 0 0 0 0 0 0 0 0
10 13 10 16 16 13 10 6 0 0 0 0 0 0 0 0 0 0 0 0 0 0 0 0 0 0 0 0 0 0 0 0 0 0 0 0 0 0 0 0 0 0 0
6 6 6 6 6 6 10 0 3 0 0 0 0 0 0 0 0 0 0 0 0 0 0 0 0 0 0 0 0 0 0 0 0 0 0 0 0 0 0 0 0 0 0
0 3 3 3 3 3 3 0 0 0 0 0 0 0 0 0 0 0 0 0 0 0 0 0 0 0 0 0 0 0 0 0 0 0 0 0 0 0 0 0 0 0 0
0 0 0 0 0 0 0 0 0 0 0 0 0 0 0 0 0 0 0 0 0 0 0 0 0 0 0 0 0 0 0 0 0 0 0 0 0 0 0 0 0 0 0
0 0 0 0 0 0 0 0 0 0 0 0 0 0 0 0 0 0 0 0 0 0 0 0 0 0 0 0 0 0 0 0 0 0 0 0 0 0 0 0 0 0 0
0 0 0 0 0 0 0 0 0 0 0 0 0 0 0 0 0 0 0 0 0 0 0 0 0 0 0 0 0 0 0 0 0 0 0 0 0 0 0 0 0 0 0
0 0 0 0 0 0 0 0 0 0 0 0 0 0 0 0 0 0 0 0 0 0 0 0 0 0 0 0 0 0 0 0 0 0 0 0 0 0 0 0 0 0 0
0 0 0 0 0 0 0 0 0 0 0 0 0 0 0 0 0 0 0 0 0 0 0 0 0 0 0 0 0 0 0 0 0 0 0 0 0 0 0 0 0 0 0
0 0 0 0 0 0 0 0 0 0 0 0 0 0 0 0 0 0 0 0 0 0 0 0 0 0 0 0 0 0 0 0 0 0 0 0 0 0 0 0 0 0 0
0 0 0 0 0 0 0 0 0 0 0 0 0 0 0 0 0 0 0 0 0 0 0 0 0 0 0 0 0 0 0 0 0 0 0 0 0 0 0 0 0 0 0
0 0 0 0 0 0 0 0 0 0 0 0 0 0 0 0 0 0 0 0 0 0 0 0 0 0 0 0 0 0 0 0 0 0 0 0 0 0 0 0 0 0 0
Height
5848 5850 5852 5854 5856 5857 5859 5861 5862 5863 5865 5865 5866 5867 5867 5867 5867 5866 5866 5865 5864 5863 5861 5860 5859 5857 5855 5854 5852 5850 5848 5846 5844 5841 5839 5837 5835 5833 5830 5829 5827 5825 5824
5846 5848 5850 5851 5853 5854 5856 5857 5859 5860 5861 5861 5862 5862 5862 5862 5862 5861 5861 5860 5859 5857 5856 5854 5853 5851 5849 5847 5846 5844 5842 5840 5838 5835 5833 5830 5828 5826 5824 5822 5820 5818 5816
5844 5846 5847 5849 5850 5851 5853 5854 5855 5856 5856 5857 5857 5857 5857 5856 5856 5856 5855 5854 5853 5851 5850 5848 5847 5845 5843 5841 5839 5837 5835 5833 5831 5829 5826 5824 5821 5819 5816 5814 5812 5810 5808
5842 5843 5844 5845 5846 5847 5848 5849 5850 5851 5851 5851 5851 5851 5851 5850 5850 5849 5848 5847 5846 5844 5843 5841 5840 5838 5836 5834 5832 5830 5827 5825 5823 5821 5819 5816 5814 5811 5808 5806 5804 5802 5800
5838 5839 5840 5841 5842 5843 5843 5844 5844 5845 5845 5845 5845 5845 5844 5844 5843 5842 5841 5840 5838 5837 5835 5833 5831 5830 5828 5825 5824 5821 5819 5817 5814 5812 5810 5808 5805 5802 5800 5797 5795 5793 5791
5834 5835 5835 5836 5836 5837 5837 5838 5838 5838 5838 5838 5838 5837 5837 5836 5835 5834 5832 5831 5830 5828 5827 5825 5823 5821 5819 5817 5814 5812 5810 5808 5805 5803 5801 5799 5796 5793 5790 5787 5785 5783 5781
5829 5830 5830 5830 5831 5831 5831 5831 5831 5830 5830 5830 5830 5829 5829 5827 5826 5825 5823 5822 5820 5819 5817 5815 5813 5811 5809 5807 5805 5802 5800 5797 5795 5793 5791 5788 5786 5783 5780 5777 5774 5772 5770
5823 5823 5823 5823 5824 5824 5823 5823 5822 5822 5822 5821 5821 5820 5819 5818 5816 5815 5813 5811 5810 5809 5807 5805 5803 5801 5799 5797 5794 5792 5790 5787 5784 5782 5780 5777 5774 5771 5768 5766 5763 5761 5758
5815 5815 5816 5816 5816 5815 5814 5813 5813 5813 5813 5812 5811 5810 5809 5808 5806 5805 5802 5801 5800 5798 5796 5794 5792 5791 5788 5785 5783 5781 5779 5776 5773 5770 5768 5766 5763 5760 5756 5753 5751 5748 5746
5808 5809 5808 5808 5807 5807 5806 5805 5804 5804 5803 5802 5801 5800 5799 5797 5796 5794 5791 5789 5788 5786 5785 5783 5781 5779 5776 5773 5771 5769 5766 5764 5760 5757 5755 5753 5750 5747 5743 5740 5737 5734 5732
5801 5801 5800 5799 5798 5797 5797 5796 5794 5793 5792 5791 5790 5789 5787 5785 5784 5782 5779 5778 5776 5774 5772 5770 5768 5766 5763 5760 5758 5755 5752 5749 5746 5744 5741 5739 5736 5733 5730 5726 5723 5720 5718
5792 5792 5791 5789 5788 5787 5786 5785 5784 5782 5781 5780 5778 5777 5775 5773 5771 5769 5767 5765 5763 5761 5759 5757 5754 5752 5749 5747 5744 5741 5737 5734 5731 5729 5726 5724 5721 5718 5715 5711 5709 5706 5704
5783 5782 5781 5780 5778 5777 5776 5774 5773 5771 5769 5768 5767 5765 5763 5761 5759 5756 5754 5752 5750 5747 5745 5743 5740 5737 5734 5732 5729 5725 5722 5718 5715 5712 5710 5707 5704 5701 5698 5696 5693 5691 5689
5773 5772 5771 5770 5768 5767 5765 5764 5762 5760 5758 5756 5754 5752 5750 5748 5746 5743 5741 5738 5736 5733 5731 5728 5725 5722 5718 5716 5712 5709 5705 5701 5698 5695 5692 5690 5686 5684 5682 5679 5677 5675 5674
5764 5763 5761 5760 5759 5757 5755 5754 5751 5749 5747 5745 5742 5740 5738 5735 5733 5730 5727 5724 5721 5717 5714 5711 5708 5705 5701 5698 5695 5691 5688 5684 5681 5678 5675 5672 5669 5667 5665 5662 5660 5659 5658
5754 5753 5751 5749 5748 5746 5744 5743 5740 5737 5734 5732 5730 5727 5724 5722 5719 5716 5712 5709 5705 5701 5698 5695 5691 5687 5683 5680 5676 5673 5670 5666 5663 5659 5656 5654 5652 5650 5648 5646 5644 5642 5641
5744 5742 5741 5739 5736 5734 5732 5730 5728 5725 5722 5720 5716 5713 5711 5708 5704 5701 5697 5693 5689 5685 5681 5677 5673 5669 5665 5662 5658 5655 5651 5648 5644 5641 5639 5636 5634 5632 5630 5629 5628 5627 5626
5733 5732 5730 5728 5725 5722 5720 5717 5714 5712 5709 5706 5703 5699 5696 5692 5689 5685 5681 5677 5673 5668 5664 5660 5656 5652 5648 5644 5640 5636 5633 5630 5627 5624 5622 5619 5617 5616 5614 5613 5612 5612 5611
5723 5721 5718 5716 5713 5710 5707 5704 5701 5698 5694 5691 5687 5683 5680 5676 5673 5668 5664 5660 5656 5651 5646 5642 5638 5634 5630 5626 5622 5618 5615 5612 5610 5607 5605 5603 5601 5600 5599 5599 5598 5598 5597
5711 5709 5706 5703 5701 5697 5694 5690 5687 5683 5679 5675 5671 5667 5663 5659 5655 5651 5646 5642 5638 5634 5629 5625 5621 5617 5613 5609 5605 5602 5599 5596 5594 5592 5590 5588 5587 5586 5585 5585 5585 5585 5585
5699 5696 5693 5690 5687 5683 5680 5676 5672 5668 5664 5660 5656 5651 5647 5643 5639 5634 5629 5625 5620 5616 5612 5608 5604 5600 5596 5592 5589 5586 5584 5581 5579 5577 5576 5575 5574 5574 5573 5573 5573 5573 5573
5686 5683 5679 5676 5672 5668 5665 5661 5657 5653 5649 5644 5640 5636 5631 5627 5623 5618 5614 5610 5605 5601 5597 5593 5589 5586 5582 5578 5575 5572 5570 5568 5566 5564 5563 5563 5562 5562 5562 5562 5562 5562 5563
5672 5669 5665 5662 5658 5654 5650 5646 5642 5637 5633 5629 5625 5620 5616 5611 5607 5603 5599 5595 5591 5587 5583 5579 5576 5572 5569 5566 5563 5560 5558 5556 5554 5553 5552 5552 5552 5552 5552 5552 5552 5553 5553
5658 5655 5651 5647 5643 5639 5635 5631 5626 5622 5618 5614 5609 5605 5601 5597 5593 5590 5586 5582 5578 5574 5571 5567 5564 5561 5558 5555 5552 5549 5547 5545 5544 5543 5543 5543 5543 5543 5544 5544 5544 5544 5545
5645 5641 5637 5633 5628 5624 5620 5616 5612 5608 5603 5599 5595 5592 5588 5584 5581 5577 5574 5570 5566 5563 5560 5556 5554 5551 5549 5546 5543 5541 5538 5537 5535 5534 5534 5535 5535 5535 5536 5536 5536 5537 5537
5631 5627 5623 5619 5615 5611 5607 5602 5598 5594 5590 5586 5583 5579 5576 5572 5569 5566 5563 5559 5556 5553 5550 5548 5545 5543 5541 5538 5536 5534 5532 5530 5529 5528 5528 5528 5528 5529 5529 5529 5530 5530 5531
Wind_Speed
10 11 11 12 12 12 12 13 13 14 15 15 16 16 17 18 19 19 20 21 21 22 23 23 24 24 25 25 25 25 26 26 26 27 27 26 26 27 27 27 27 27 28
11 12 13 13 13 14 14 15 16 17 17 18 19 19 20 21 22 22 23 24 25 25 25 26 26 27 27 28 27 27 27 28 28 28 29 29 28 28 29 29 29 28 28
12 13 14 14 15 16 16 17 18 19 20 20 21 22 22 23 24 25 25 26 27 28 28 28 28 29 30 30 29 29 30 30 30 30 30 30 30 30 30 31 30 30 30
13 14 15 16 17 18 19 20 21 21 22 23 23 24 25 26 27 28 28 29 29 30 31 31 31 31 32 32 32 32 32 32 32 32 32 32 32 32 32 32 32 32 31
16 16 17 18 19 20 21 22 23 23 24 25 26 26 27 28 29 30 31 32 32 32 33 33 34 33 33 34 34 34 34 34 34 34 34 33 34 34 34 34 34 33 33
18 18 20 21 22 23 24 25 25 26 26 27 27 28 29 30 31 32 33 34 34 34 34 35 36 36 36 36 36 37 37 36 36 36 36 36 36 36 36 36 36 35 35
20 21 22 23 25 26 27 28 28 29 29 29 30 31 32 34 35 35 36 37 37 37 37 37 37 37 37 37 37 37 38 38 38 38 38 38 38 38 39 38 38 38 38
23 24 25 26 28 29 30 30 30 30 30 31 32 33 35 36 37 38 39 39 39 38 38 38 38 38 38 39 39 39 39 39 40 40 40 40 41 41 41 41 41 40 40
26 27 27 29 29 30 31 31 32 32 33 33 34 35 37 38 39 40 41 41 41 41 41 40 40 40 41 41 41 41 41 42 42 43 43 43 43 43 43 43 43 43 41
28 30 31 31 31 32 33 34 35 36 37 38 38 39 40 40 42 42 43 43 43 43 43 43 43 43 43 44 44 44 44 44 45 45 45 45 45 44 45 45 45 44 43
32 33 34 34 34 35 36 37 37 38 40 41 41 41 41 41 43 43 44 45 45 45 45 45 45 45 45 46 46 47 47 47 47 47 47 47 48 47 47 47 47 46 45
35 35 36 37 38 39 40 40 40 42 43 42 41 40 40 41 43 44 45 46 46 47 47 47 47 48 48 48 48 49 49 50 49 49 50 50 50 49 49 48 48 47 46
37 37 37 38 38 39 41 41 40 41 41 41 42 42 42 43 44 45 45 46 46 47 48 49 49 50 51 51 51 51 52 52 52 52 52 52 51 51 50 49 49 48 47
36 37 37 37 38 40 40 40 40 42 42 42 41 43 44 44 45 45 46 47 48 49 50 51 51 52 53 53 53 54 54 54 55 55 54 53 52 52 51 51 50 48 47
36 37 37 37 38 39 39 40 40 40 41 42 42 44 45 46 47 48 49 50 51 52 53 53 53 55 55 56 55 55 55 56 55 54 53 52 52 51 50 50 50 49 47
36 37 37 38 38 38 39 40 41 42 42 43 45 46 47 48 49 50 50 51 52 53 53 54 55 56 57 57 56 56 55 55 54 53 52 51 51 51 50 49 48 46 45
35 35 36 37 38 39 40 41 42 43 44 46 47 48 49 50 51 51 52 52 53 55 55 56 55 56 56 56 56 55 55 54 53 52 51 50 50 49 47 47 46 44 43
36 36 37 38 39 40 41 42 44 45 47 48 49 50 50 50 51 52 53 54 54 55 55 55 55 55 55 55 54 53 53 52 50 50 49 48 46 45 43 42 41 41 40
38 39 40 41 42 43 44 46 47 48 49 50 51 51 51 52 53 53 54 55 55 55 55 54 54 54 53 53 52 51 50 49 47 46 45 44 43 42 42 41 40 39 38
40 41 42 43 45 45 46 47 48 49 50 50 51 51 52 53 54 54 55 55 54 54 53 53 52 51 51 50 49 48 47 45 44 43 41 40 39 38 38 37 36 36 36
41 42 44 45 46 47 48 49 49 50 50 50 51 52 53 53 53 54 54 53 52 51 50 49 48 47 47 46 45 44 42 40 38 37 36 36 35 35 34 33 32 32 32
43 44 45 46 47 48 49 49 49 50 50 51 52 52 53 52 52 52 51 49 48 47 46 46 45 44 43 42 40 39 37 36 35 34 33 32 31 31 31 31 30 30 30
45 45 46 47 47 48 49 50 50 50 51 51 51 51 50 50 49 48 47 45 44 44 43 42 41 40 38 37 36 35 34 34 33 31 30 29 29 28 28 28 28 28 27
45 46 47 47 48 48 48 49 49 49 49 48 47 47 46 45 44 43 42 41 41 40 39 38 36 35 33 32 32 31 30 29 29 28 27 26 26 25 25 25 26 25 24
45 46 46 46 46 46 46 46 46 46 45 44 43 43 42 41 41 39 38 38 37 36 34 33 32 30 29 28 28 26 25 25 24 23 22 22 22 22 22 22 23 23 22
43 44 44 43 43 43 43 43 42 41 41 40 39 39 39 38 36 35 34 34 32 31 29 27 27 26 25 25 23 22 21 20 18 17 17 17 18 18 18 19 19 20 20
Wind_Direction
223 225 230 232 236 240 242 246 249 252 255 261 267 273 278 283 287 291 293 295 297 299 300 301 302 303 304 305 305 306 307 309 310 310 310 309 307 305 303 301 298 296 294
234 234 237 241 244 247 250 253 256 258 262 266 269 274 278 281 285 288 291 293 295 296 298 299 300 301 302 302 302 302 304 306 307 307 307 307 306 304 303 302 299 296 294
246 246 247 249 250 253 255 258 260 262 265 268 271 274 277 280 283 286 289 291 293 294 295 297 298 299 299 300 300 300 301 303 303 303 304 304 304 303 302 301 299 297 294
256 255 255 256 257 259 260 262 264 266 269 271 274 276 279 281 283 286 288 290 291 293 294 295 296 296 297 298 298 298 299 300 301 301 301 301 301 301 301 300 298 296 295
262 260 260 261 263 264 265 266 268 270 272 275 277 278 280 283 285 286 287 289 291 292 293 294 294 294 295 295 296 296 297 298 299 299 299 300 300 300 300 299 297 296 294
265 266 265 265 266 267 268 269 270 271 274 276 278 279 281 283 286 287 287 289 289 290 291 291 292 293 293 294 294 294 296 296 296 297 298 298 298 299 299 298 297 295 294
270 271 271 270 271 272 271 271 271 272 274 276 278 279 280 282 284 286 287 288 288 287 288 289 290 291 292 292 292 292 293 294 295 295 297 297 297 298 298 297 297 296 294
272 272 272 272 274 274 273 274 273 275 277 278 278 279 282 283 283 285 286 287 287 288 288 289 289 291 291 291 291 292 292 293 293 294 295 295 296 296 296 296 296 295 294
273 274 276 276 277 276 275 274 275 276 277 278 279 280 282 282 283 284 286 286 286 286 287 287 288 289 290 289 290 291 292 292 291 292 293 294 294 294 294 294 294 294 292
275 276 277 277 278 279 280 279 279 277 277 278 279 280 282 282 283 284 285 286 285 285 285 286 287 289 289 289 290 291 292 291 290 291 292 292 293 292 292 293 293 292 291
278 278 280 280 280 280 281 281 280 280 279 279 280 281 283 284 284 284 284 284 284 284 286 286 287 288 289 290 290 290 290 290 289 290 291 291 291 291 290 290 290 289 289
279 280 282 282 282 281 281 280 279 280 280 280 281 283 285 284 284 284 284 284 284 285 286 287 289 290 290 290 290 290 290 290 290 290 290 290 289 289 288 287 287 287 286
281 281 283 284 284 282 282 281 281 283 282 281 282 283 284 285 285 285 286 286 287 288 289 289 290 290 290 290 290 290 291 291 290 290 290 289 289 288 287 286 286 285 284
281 282 283 284 284 284 283 284 283 285 284 284 285 286 287 288 289 288 287 287 289 289 290 290 291 291 290 290 290 290 290 289 289 289 289 288 288 287 286 285 284 283 282
280 281 282 283 283 284 284 283 284 285 286 288 288 289 289 290 291 291 290 290 290 290 290 291 291 291 291 291 290 289 289 289 289 289 288 288 287 287 285 283 283 281 280
280 282 283 283 284 285 286 285 286 288 288 289 291 291 291 291 291 291 290 290 290 291 292 292 292 291 291 291 290 289 290 289 289 288 287 286 286 285 284 282 281 280 279
282 283 285 286 288 289 289 289 289 289 289 290 290 290 290 291 292 292 291 292 293 293 293 293 292 292 291 290 290 290 289 289 288 287 287 285 285 284 282 281 279 278 277
285 286 288 289 290 290 290 290 290 290 291 291 290 291 292 292 292 292 292 293 293 293 293 293 292 292 291 291 291 290 289 288 287 286 285 284 283 282 281 279 277 277 275
287 287 287 289 290 290 291 291 291 291 292 293 293 293 293 293 293 294 294 294 294 294 294 293 293 293 293 292 291 290 289 288 287 285 284 283 281 279 278 277 275 274 272
289 289 289 289 290 291 292 294 294 294 294 294 294 294 295 295 296 296 295 295 295 294 294 293 293 293 292 292 291 291 289 288 287 285 282 280 279 278 277 276 275 273 271
292 292 292 292 293 293 294 295 295 295 295 295 295 296 296 296 296 296 296 296 295 295 294 294 294 293 293 293 292 291 290 288 285 282 279 278 277 277 275 275 274 272 269
296 295 295 295 295 295 295 295 295 295 295 295 295 295 295 295 295 295 295 295 295 295 295 294 294 294 294 294 293 291 289 286 284 280 278 277 276 275 273 273 273 273 271
296 296 295 295 295 295 295 295 295 295 295 295 295 295 296 296 296 296 296 296 295 295 295 295 295 295 294 293 291 290 287 284 282 279 276 275 274 274 273 271 271 272 271
297 296 296 296 296 296 296 296 296 296 296 296 295 295 295 295 296 296 296 296 296 296 296 296 296 296 295 294 293 292 289 286 283 278 275 274 274 272 271 270 271 270 269
299 297 297 296 297 297 297 297 297 297 297 296 296 296 295 295 295 296 297 298 298 298 297 296 297 296 295 294 294 294 291 288 284 279 275 273 272 270 270 269 268 266 267
300 299 299 298 298 299 299 299 299 299 298 297 296 295 295 295 295 296 297 299 299 298 297 296 297 297 296 296 294 293 292 290 285 281 281 278 276 272 270 268 266 266 267